| time (UTC) | temp C | wind direction | speed KPH | gust KPH | rain 1hr cm | rain 24hr cm | rain mn cm | humidity % | barometer mb |
| 20260502203107 | 17 | 63 | 11.3 | 20.9 | 0.00 | 0.00 | 0.00 | 94 | 1015.6 |
| 20260502201546 | 17 | 65 | 16.1 | 22.5 | 0.00 | 0.00 | 0.00 | 94 | 1015.4 |
| 20260502200043 | 17 | 65 | 17.7 | 24.1 | 0.00 | 0.00 | 0.00 | 94 | 1015.3 |
| 20260502194543 | 17 | 63 | 17.7 | 22.5 | 0.00 | 0.00 | 0.00 | 94 | 1015.2 |
| 20260502193043 | 17 | 74 | 20.9 | 22.5 | 0.00 | 0.00 | 0.00 | 94 | 1015.5 |
| 20260502191542 | 17 | 76 | 19.3 | 24.1 | 0.00 | 0.00 | 0.00 | 94 | 1015.3 |
| 20260502190040 | 17 | 69 | 16.1 | 22.5 | 0.00 | 0.00 | 0.00 | 94 | 1015.3 |
| 20260502184538 | 17 | 56 | 16.1 | 20.9 | 0.00 | 0.00 | 0.00 | 94 | 1015.2 |
| 20260502183037 | 17 | 33 | 9.7 | 19.3 | 0.00 | 0.00 | 0.00 | 95 | 1015.3 |
| 20260502181548 | 17 | 64 | 17.7 | 20.9 | 0.00 | 0.00 | 0.00 | 94 | 1015.5 |
| 20260502163023 | 17 | 60 | 14.5 | 19.3 | 0.00 | 0.00 | 0.00 | 93 | 1016.1 |
| 20260502161622 | 17 | 56 | 11.3 | 17.7 | 0.00 | 0.00 | 0.00 | 94 | 1016.4 |
| 20260502151516 | 18 | 59 | 12.9 | 19.3 | 0.00 | 0.00 | 0.00 | 93 | 1016.9 |
| 20260502123001 | 18 | 67 | 16.1 | 20.9 | 0.00 | 0.00 | 0.00 | 92 | 1018.5 |
| 20260502121559 | 18 | 56 | 11.3 | 17.7 | 0.00 | 0.00 | 0.00 | 92 | 1018.6 |
| 20260502120105 | 18 | 56 | 11.3 | 16.1 | 0.00 | 0.00 | 0.00 | 92 | 1018.7 |
| 20260502114600 | 18 | 72 | 11.3 | 17.7 | 0.00 | 0.00 | 0.00 | 92 | 1018.7 |
| 20260502113100 | 18 | 65 | 11.3 | 17.7 | 0.00 | 0.00 | 0.00 | 92 | 1018.7 |
| 20260502111554 | 18 | 61 | 12.9 | 19.3 | 0.00 | 0.00 | 0.00 | 92 | 1018.9 |
| 20260502110057 | 18 | 67 | 16.1 | 20.9 | 0.00 | 0.00 | 0.00 | 91 | 1018.9 |
| 20260502104546 | 18 | 44 | 11.3 | 19.3 | 0.00 | 0.00 | 0.00 | 91 | 1019.2 |
| 20260502103041 | 18 | 77 | 12.9 | 19.3 | 0.00 | 0.00 | 0.00 | 90 | 1019.4 |
| 20260502101544 | 18 | 60 | 14.5 | 19.3 | 0.00 | 0.00 | 0.00 | 90 | 1019.4 |
| 20260502091533 | 18 | 70 | 17.7 | 22.5 | 0.00 | 0.00 | 0.00 | 90 | 1019.5 |
| 20260502071517 | 18 | 68 | 11.3 | 17.7 | 0.00 | 0.00 | 0.00 | 91 | 1019.5 |
| 20260502070016 | 18 | 61 | 14.5 | 19.3 | 0.00 | 0.00 | 0.00 | 91 | 1019.5 |
| 20260502064534 | 17 | 65 | 16.1 | 19.3 | 0.00 | 0.00 | 0.00 | 92 | 1019.3 |
| 20260502063014 | 17 | 71 | 14.5 | 17.7 | 0.00 | 0.00 | 0.00 | 91 | 1019.4 |
| 20260502061513 | 17 | 61 | 12.9 | 17.7 | 0.00 | 0.00 | 0.00 | 90 | 1019.4 |
| 20260502060011 | 17 | 56 | 11.3 | 14.5 | 0.00 | 0.00 | 0.00 | 89 | 1019.4 |
| 20260502054511 | 17 | 65 | 1.6 | 6.4 | 0.00 | 0.00 | 0.00 | 90 | 1019.3 |
| 20260502053010 | 17 | 43 | 1.6 | 3.2 | 0.00 | 0.00 | 0.00 | 90 | 1019.3 |
| 20260502051508 | 17 | 36 | 0.0 | 4.8 | 0.00 | 0.00 | 0.00 | 90 | 1019.2 |
| 20260502050017 | 17 | 26 | 0.0 | 8.0 | 0.00 | 0.00 | 0.00 | 90 | 1019.1 |
| 20260502044509 | 17 | 11 | 1.6 | 8.0 | 0.00 | 0.00 | 0.00 | 91 | 1019.0 |
| 20260502043007 | 17 | 33 | 3.2 | 4.8 | 0.00 | 0.00 | 0.00 | 90 | 1018.9 |
| 20260502041505 | 17 | 36 | 3.2 | 4.8 | 0.00 | 0.00 | 0.00 | 91 | 1019.2 |
| 20260502040005 | 17 | 11 | 1.6 | 6.4 | 0.00 | 0.00 | 0.00 | 92 | 1019.2 |
| 20260502034505 | 17 | 333 | 3.2 | 0.0 | 0.00 | 0.00 | 0.00 | 92 | 1019.3 |
| 20260502033003 | 17 | 302 | 1.6 | 6.4 | 0.00 | 0.00 | 0.00 | 92 | 1019.3 |
| 20260502031502 | 17 | 302 | 1.6 | 8.0 | 0.00 | 0.00 | 0.00 | 93 | 1019.3 |
| 20260502030003 | 17 | 288 | 1.6 | 6.4 | 0.00 | 0.00 | 0.00 | 93 | 1019.6 |
| 20260502024501 | 17 | 331 | 4.8 | 8.0 | 0.00 | 0.00 | 0.00 | 93 | 1019.3 |
| 20260502023100 | 17 | 34 | 6.4 | 9.7 | 0.00 | 0.00 | 0.00 | 93 | 1019.2 |
| 20260502021559 | 17 | 21 | 6.4 | 11.3 | 0.00 | 0.00 | 0.00 | 93 | 1019.4 |
| 20260502020112 | 17 | 68 | 12.9 | 16.1 | 0.00 | 0.00 | 0.00 | 93 | 1019.3 |
| 20260502014557 | 17 | 69 | 6.4 | 9.7 | 0.00 | 0.00 | 0.00 | 92 | 1019.5 |
| 20260502013053 | 17 | 74 | 4.8 | 11.3 | 0.00 | 0.00 | 0.00 | 90 | 1019.6 |
| 20260502011554 | 17 | 68 | 11.3 | 16.1 | 0.00 | 0.00 | 0.00 | 89 | 1019.7 |
| 20260502010050 | 17 | 76 | 9.7 | 14.5 | 0.00 | 0.00 | 0.00 | 89 | 1020.0 |
| 20260502004554 | 17 | 46 | 8.0 | 14.5 | 0.00 | 0.00 | 0.00 | 90 | 1020.1 |
| 20260502003049 | 17 | 62 | 8.0 | 16.1 | 0.00 | 0.00 | 0.00 | 90 | 1020.3 |
| 20260502001622 | 17 | 58 | 9.7 | 14.5 | 0.00 | 0.00 | 0.00 | 90 | 1020.5 |
| 20260502000042 | 17 | 51 | 8.0 | 16.1 | 0.00 | 0.00 | 0.00 | 91 | 1020.6 |
| 20260501234540 | 17 | 50 | 9.7 | 19.3 | 0.00 | 0.00 | 0.00 | 91 | 1020.8 |
| 20260501233038 | 17 | 68 | 16.1 | 22.5 | 0.00 | 0.00 | 0.00 | 91 | 1020.8 |
| 20260501231538 | 17 | 46 | 14.5 | 22.5 | 0.00 | 0.00 | 0.00 | 90 | 1020.8 |
| 20260501230035 | 17 | 61 | 14.5 | 20.9 | 0.00 | 0.00 | 0.00 | 91 | 1020.7 |
| 20260501224538 | 17 | 74 | 17.7 | 24.1 | 0.00 | 0.00 | 0.00 | 91 | 1020.7 |
| 20260501223032 | 17 | 68 | 19.3 | 25.7 | 0.00 | 0.00 | 0.00 | 91 | 1020.7 |
| 20260501221528 | 17 | 70 | 20.9 | 29.0 | 0.00 | 0.00 | 0.00 | 91 | 1020.7 |
| 20260501220026 | 17 | 47 | 17.7 | 24.1 | 0.00 | 0.00 | 0.00 | 92 | 1020.8 |
| 20260501214526 | 17 | 70 | 12.9 | 19.3 | 0.00 | 0.00 | 0.00 | 92 | 1021.0 |
| 20260501213023 | 17 | 83 | 8.0 | 16.1 | 0.00 | 0.00 | 0.00 | 93 | 1021.1 |
| 20260501211523 | 17 | 90 | 14.5 | 25.7 | 0.00 | 0.00 | 0.00 | 93 | 1020.9 |
| 20260501210030 | 17 | 70 | 19.3 | 25.7 | 0.00 | 0.00 | 0.00 | 93 | 1020.7 |
| 20260501204520 | 17 | 70 | 16.1 | 22.5 | 0.00 | 0.00 | 0.00 | 93 | 1020.8 |